Find Starlink 33767

NORAD ID: 63722 Int'l Des: 2025-087 Owner: SPXS Country: US Constellation: starlink operational
LEOCIRCULAR

Aktuelle Ansicht

3D-Globus wird geladen...

Über Starlink 33767

Beschreibung wird geladen...

Nächste Überflüge

Passes for default location (London). Set your location on the main map for personalized predictions.

Höhenverlauf

Loading altitude history...

Zweizeiliger Elementsatz

1 63722U 25087AB 26149.56455572 .00021114 00000-0 72301-3 0 9998
2 63722 53.1580 203.7753 0001046 52.9420 307.1676 15.30198661 61584
Epoch: 29. Mai 2026 • Age: 18 hours

Aktueller Status

Höhe 481.1 km
Geschwindigkeit 7.63 km/s
Subsatellitenpunkt 53.30°N, 64.07°W
Startdatum 28. Apr. 2025
Alter 1 years
Typ internet

Technische Details

Klassifizierung Payload
Masse 575.00 kg
Trockenmasse 530.00 kg
Gesamtmasse 575.00 kg
Länge 0.30 m
Durchmesser 4.10 m
Spannweite 29.00 m
Form Box + pan
Hersteller SPXS
Bus-Typ Starlink V2MO
Phasenstatus In Orbit
Besitzer/Staat SPXS/US

Most Searched